Stations météo

Publicité
Kleine Brogel, Belgique (6479): Température de l'air & dewpoint: 19.06.2018 02:00:00 - 25.06.2018 02:00:00 (CEST)Kleine Brogel, Belgique (6479): Vitesse du vent & gusts: 19.06.2018 02:00:00 - 25.06.2018 02:00:00 (CEST)Kleine Brogel, Belgique (6479): Direction du vent: 19.06.2018 02:00:00 - 25.06.2018 02:00:00 (CEST)Kleine Brogel, Belgique (6479): reduced air pressure: 19.06.2018 02:00:00 - 25.06.2018 02:00:00 (CEST)Kleine Brogel, Belgique (6479): visibility: 19.06.2018 02:00:00 - 25.06.2018 02:00:00 (CEST)
Date & Time tt [°C] td [°C] ff [km/h] ff [knt] fx [km/h] fx [knt] dd ppp [hPa] vv [km]
25.06.2018 02:00:00 14,0 10,9 4 2 - - N 1024,2 20
25.06.2018 01:00:00 14,7 10,7 5 3 14 8 N 1024,2 10
25.06.2018 00:00:00 15,3 10,1 7 4 18 10 NNW 1024,2 20
24.06.2018 23:00:00 15,7 9,4 7 4 - - NNW 1024,0 20
24.06.2018 22:00:00 16,5 10,1 11 6 22 12 N 1023,7 20
24.06.2018 21:00:00 17,2 10,3 11 6 22 12 NNW 1023,3 20
24.06.2018 20:00:00 18,0 10,6 11 6 - - N 1023,5 20
24.06.2018 19:00:00 18,6 10,2 11 6 22 12 NNW 1023,6 20
24.06.2018 18:00:00 19,0 9,7 14 8 22 12 N 1023,6 20
24.06.2018 17:00:00 19,7 9,4 11 6 - - NNW 1023,7 20
24.06.2018 16:00:00 19,9 8,4 11 6 22 12 NNW 1023,7 20
24.06.2018 15:00:00 20,1 6,9 11 6 22 12 NNW 1024,0 20
24.06.2018 14:00:00 20,0 6,9 11 6 - - NNE 1024,4 20
24.06.2018 13:00:00 18,2 7,7 11 6 22 12 N 1024,5 10
24.06.2018 12:00:00 17,0 9,3 9 5 14 8 N 1024,7 10
24.06.2018 11:00:00 15,7 10,7 7 4 - - N 1024,7 17
24.06.2018 10:00:00 15,2 10,9 7 4 14 8 NNE 1024,5 13
24.06.2018 09:00:00 14,1 11,3 7 4 14 8 NNW 1024,4 8
24.06.2018 08:00:00 12,8 11,5 7 4 - - NW 1024,2 5
24.06.2018 07:00:00 11,1 10,3 4 2 11 6 N 1024,0 4,7
24.06.2018 06:00:00 9,3 8,6 4 2 7 4 N 1023,7 4,4
24.06.2018 05:00:00 9,5 8,6 4 2 - - N 1023,7 1,1
24.06.2018 04:00:00 10,6 9,5 4 2 7 4 N 1023,7 16
24.06.2018 03:00:00 11,6 10,8 4 2 7 4 N 1024,2 16
24.06.2018 02:00:00 12,5 11,0 4 2 - - N 1024,7 18
24.06.2018 01:00:00 13,6 11,5 4 2 7 4 N 1024,9 20
24.06.2018 00:00:00 14,8 10,8 4 2 7 4 N 1025,0 20
23.06.2018 23:00:00 14,8 8,8 4 2 - - N 1025,0 20
23.06.2018 22:00:00 16,0 7,7 4 2 11 6 N 1024,7 20
23.06.2018 21:00:00 18,1 7,3 4 2 14 8 N 1024,9 20
23.06.2018 20:00:00 18,5 9,3 4 2 - - N 1025,0 20
23.06.2018 19:00:00 19,5 8,1 4 2 7 4 N 1025,4 20
23.06.2018 18:00:00 18,7 8,9 4 2 11 6 N 1026,0 20
23.06.2018 17:00:00 18,3 8,7 4 2 - - N 1026,4 20
23.06.2018 16:00:00 18,2 8,4 4 2 18 10 N 1027,0 20
23.06.2018 15:00:00 17,7 8,6 7 4 18 10 WNW 1027,7 20
23.06.2018 14:00:00 17,8 8,8 7 4 - - NW 1028,2 20
23.06.2018 13:00:00 16,7 8,2 7 4 32 18 WNW 1028,5 18
23.06.2018 12:00:00 16,1 8,2 7 4 18 10 NW 1028,5 20
23.06.2018 11:00:00 16,1 7,9 8 4 - - NNW 1028,7 10
23.06.2018 10:00:00 15,3 8,1 11 6 22 12 NW 1028,9 20
23.06.2018 09:00:00 13,3 8,5 9 5 14 8 W 1028,9 10
23.06.2018 08:00:00 10,8 8,5 7 4 - - W 1029,0 13
23.06.2018 07:00:00 7,9 7,4 7 4 7 4 WSW 1029,0 12
23.06.2018 06:00:00 5,8 5,2 4 2 7 4 N 1029,0 9
23.06.2018 05:00:00 5,8 5,1 5 3 - - W 1029,0 3,1
23.06.2018 04:00:00 6,3 5,4 4 2 7 4 N 1029,0 9
23.06.2018 03:00:00 6,9 5,7 4 2 7 4 N 1029,0 10
23.06.2018 02:00:00 7,6 6,5 4 2 - - N 1029,2 14
23.06.2018 01:00:00 8,6 7,0 4 2 11 6 N 1029,2 17
23.06.2018 00:00:00 9,6 7,4 4 2 11 6 N 1029,5 17
22.06.2018 23:00:00 11,1 7,6 4 2 - - N 1029,2 19
22.06.2018 22:00:00 12,0 7,5 7 4 22 12 NW 1028,9 19
22.06.2018 21:00:00 13,8 7,4 11 6 25 14 NW 1028,4 20
22.06.2018 20:00:00 13,8 8,2 14 8 - - NW 1028,4 19
22.06.2018 19:00:00 14,6 8,6 11 6 25 14 WNW 1028,2 20
22.06.2018 18:00:00 15,2 8,1 14 8 25 14 NW 1028,2 20
22.06.2018 17:00:00 13,6 10,6 14 8 - - NW 1028,0 20
22.06.2018 16:00:00 15,1 8,6 14 8 29 16 NNW 1027,9 20
22.06.2018 15:00:00 15,0 6,9 14 8 32 18 NW 1027,7 18
22.06.2018 14:00:00 15,0 6,7 14 8 - - NW 1027,7 20
22.06.2018 13:00:00 16,0 6,5 18 10 36 19 WNW 1027,4 20
22.06.2018 12:00:00 15,6 5,7 14 8 32 18 NW 1027,4 20
22.06.2018 11:00:00 14,3 4,8 14 8 - - NW 1027,2 20
22.06.2018 10:00:00 14,3 4,8 18 10 47 25 NW 1026,7 20
22.06.2018 09:00:00 15,5 6,0 21 11 36 19 NW 1026,0 10
22.06.2018 08:00:00 12,9 7,2 14 8 - - W 1026,0 20
22.06.2018 07:00:00 9,7 6,4 14 8 25 14 WSW 1026,0 20
22.06.2018 06:00:00 8,1 5,9 14 8 18 10 WSW 1026,0 20
22.06.2018 05:00:00 7,6 5,6 11 6 - - WSW 1025,9 20
22.06.2018 04:00:00 7,8 5,4 11 6 18 10 WSW 1026,0 20
22.06.2018 03:00:00 8,5 5,4 11 6 18 10 WSW 1026,2 20
22.06.2018 02:00:00 8,8 5,4 14 8 - - WSW 1026,2 20
22.06.2018 01:00:00 8,9 5,1 11 6 14 8 WSW 1026,5 20
22.06.2018 00:00:00 10,1 5,2 7 4 22 12 W 1026,7 20
21.06.2018 23:00:00 11,5 5,3 7 4 - - WNW 1026,5 20
21.06.2018 22:00:00 12,9 5,2 11 6 22 12 WNW 1026,0 20
21.06.2018 21:00:00 13,6 4,7 11 6 36 19 NW 1025,5 20
21.06.2018 20:00:00 14,8 5,4 14 8 - - NW 1025,0 20
21.06.2018 19:00:00 15,1 5,7 18 10 36 19 NW 1024,7 20
21.06.2018 18:00:00 15,8 5,2 18 10 29 16 WNW 1024,4 20
21.06.2018 17:00:00 15,6 4,3 14 8 - - NW 1024,0 20
21.06.2018 16:00:00 16,5 3,4 22 12 40 21 NW 1023,1 20
21.06.2018 15:00:00 19,1 3,2 18 10 40 21 NW 1022,3 20
21.06.2018 14:00:00 17,8 3,9 22 12 - - NW 1021,7 20
21.06.2018 13:00:00 17,5 4,3 25 14 43 23 W 1021,1 20
21.06.2018 12:00:00 18,6 5,0 22 12 36 19 WNW 1020,6 20
21.06.2018 11:00:00 15,6 6,7 25 14 - - NW 1021,2 15
21.06.2018 10:00:00 16,4 9,6 15 8 32 18 WNW 1018,9 10
21.06.2018 09:00:00 15,8 10,7 14 8 36 19 WNW 1018,2 20
21.06.2018 08:00:00 17,2 12,8 14 8 - - WNW 1017,0 15
21.06.2018 07:00:00 17,1 14,6 14 8 25 14 W 1016,7 8
21.06.2018 06:00:00 16,8 14,5 11 6 22 12 W 1016,1 10
21.06.2018 05:00:00 16,6 14,1 14 8 - - WSW 1016,2 -
21.06.2018 04:00:00 16,6 13,6 14 8 18 10 WSW 1016,7 -
21.06.2018 03:00:00 17,1 13,7 11 6 11 6 SW 1016,8 -
21.06.2018 02:00:00 17,7 14,2 4 2 - - N 1017,3 -
21.06.2018 01:00:00 18,7 14,2 11 6 14 8 WSW 1017,7 -
21.06.2018 00:00:00 19,2 14,0 7 4 11 6 SW 1017,8 -
20.06.2018 23:00:00 19,5 13,9 7 4 - - WSW 1018,3 -
20.06.2018 22:00:00 21,5 13,5 7 4 18 10 W 1018,2 -
20.06.2018 21:00:00 24,7 12,9 7 4 22 12 W 1018,0 -
20.06.2018 20:00:00 26,0 13,8 11 6 - - W 1018,2 -
20.06.2018 19:00:00 27,2 13,7 14 8 25 14 W 1018,6 -
20.06.2018 18:00:00 27,8 13,3 11 6 32 18 W 1018,8 -
20.06.2018 17:00:00 28,0 12,9 14 8 - - W 1019,5 25
20.06.2018 16:00:00 27,4 13,6 11 6 29 16 WSW 1019,8 25
20.06.2018 15:00:00 27,4 14,8 14 8 29 16 SW 1020,3 25
20.06.2018 14:00:00 26,0 15,1 11 6 - - SW 1021,0 25
20.06.2018 13:00:00 25,2 15,4 14 8 25 14 SSW 1021,7 25
20.06.2018 12:00:00 23,9 15,2 15 8 25 14 SW 1022,3 10
20.06.2018 11:00:00 20,1 14,8 14 8 - - WSW 1022,9 20
20.06.2018 10:00:00 20,1 14,6 14 8 25 14 WSW 1022,8 20
20.06.2018 09:00:00 19,1 14,5 14 8 25 14 WSW 1022,8 20
20.06.2018 08:00:00 18,1 14,4 11 6 - - SW 1022,8 20
20.06.2018 07:00:00 16,7 15,0 4 2 11 6 N 1023,0 20
20.06.2018 06:00:00 15,8 14,7 4 2 11 6 N 1023,1 15
20.06.2018 05:00:00 16,8 15,4 7 4 - - SW 1023,2 -
20.06.2018 04:00:00 17,2 15,8 4 2 7 4 N 1023,5 -
20.06.2018 03:00:00 17,6 15,8 4 2 7 4 N 1023,7 -
20.06.2018 02:00:00 18,0 15,7 4 2 - - N 1024,2 -
20.06.2018 01:00:00 18,1 15,7 4 2 7 4 N 1024,5 -
20.06.2018 00:00:00 18,7 15,8 4 2 7 4 N 1024,5 -
19.06.2018 23:00:00 19,0 15,6 4 2 - - N 1024,7 -
19.06.2018 22:00:00 19,5 15,5 4 2 11 6 N 1024,4 -
19.06.2018 21:00:00 20,0 15,4 7 4 14 8 SW 1024,2 -
19.06.2018 20:00:00 20,2 15,6 11 6 - - SW 1024,2 -
19.06.2018 19:00:00 20,9 15,2 7 4 18 10 W 1024,5 -
19.06.2018 18:00:00 21,7 15,3 7 4 18 10 W 1024,5 -
19.06.2018 17:00:00 22,0 15,2 11 6 - - WSW 1024,7 -
19.06.2018 16:00:00 21,0 15,2 11 6 18 10 WSW 1024,9 12
19.06.2018 15:00:00 20,1 15,4 13 7 18 10 WSW 1025,0 10
19.06.2018 14:00:00 19,7 15,4 11 6 - - WSW 1025,0 12
19.06.2018 13:00:00 19,6 15,8 14 8 22 12 WSW 1024,7 6
19.06.2018 12:00:00 19,0 15,7 11 6 22 12 W 1024,7 8
19.06.2018 11:00:00 17,7 15,5 18 10 - - WSW 1024,7 -
19.06.2018 10:00:00 - - - - - - - - -
19.06.2018 09:00:00 16,6 14,2 14 8 22 12 SW 1023,8 -
19.06.2018 08:00:00 15,6 13,5 11 6 - - SW 1023,5 -
19.06.2018 07:00:00 15,1 13,0 11 6 22 12 SW 1023,2 -
19.06.2018 06:00:00 14,5 12,4 14 8 22 12 SW 1023,1 -
19.06.2018 05:00:00 13,8 11,6 14 8 - - SW 1022,7 -
19.06.2018 04:00:00 13,5 11,1 11 6 18 10 SW 1022,5 -
19.06.2018 03:00:00 14,1 11,3 11 6 18 10 SW 1022,1 -
19.06.2018 02:00:00 14,4 11,2 11 6 - - SW 1022,1 -

tt = Température de l'air
td = dewpoint
ff = Vitesse du vent
fx = gusts
dd = Direction du vent
ppp = reduced air pressure
vv = visibility

stations d'obs. à proximité